DW5490 Weather Reports


time (UTC)temp
C
wind
direction
speed
KPH
gust
KPH
rain 1hr
cm
rain 24hr
cm
rain mn
cm
humidity
%
barometer
mb
20260507201531 17 271 9.7 19.3 0.00 0.00 0.00 34 1004.8
20260507200020 17 300 9.7 17.7 0.00 0.00 0.00 34 1004.8
20260507194612 17 303 8.0 14.5 0.00 0.00 0.00 33 1004.9
20260507193053 17 286 8.0 16.1 0.00 0.00 0.00 34 1005.0
20260507191540 17 296 11.3 19.3 0.00 0.00 0.00 35 1005.2
20260507190040 17 301 8.0 20.9 0.00 0.00 0.00 37 1005.2
20260507184515 17 302 9.7 19.3 0.00 0.00 0.00 38 1005.6
20260507183018 17 299 6.4 16.1 0.00 0.00 0.00 38 1005.7
20260507181521 17 271 9.7 22.5 0.00 0.00 0.00 40 1005.8
20260507180016 17 279 4.8 19.3 0.00 0.00 0.00 42 1005.9
20260507174517 16 289 12.9 25.7 0.00 0.00 0.00 42 1005.8
20260507173004 16 310 4.8 19.3 0.00 0.00 0.00 42 1005.9
20260507171606 16 323 6.4 16.1 0.00 0.00 0.00 44 1006.2
20260507170010 16 303 8.0 17.7 0.00 0.00 0.00 50 1006.2
20260507164600 15 322 8.0 17.7 0.00 0.00 0.00 54 1006.4
20260507163056 16 281 9.7 17.7 0.00 0.00 0.00 53 1006.4
20260507161536 16 321 1.6 14.5 0.00 0.00 0.00 60 1006.6
20260507160112 15 266 6.4 19.3 0.00 0.00 0.00 59 1006.7
20260507154609 15 241 6.4 11.3 0.00 0.00 0.00 64 1007.0
20260507153028 14 307 3.2 11.3 0.00 0.00 0.00 65 1007.1
20260507151540 13 5 6.4 12.9 0.00 0.00 0.00 66 1007.2
20260507150043 14 273 4.8 16.1 0.00 0.00 0.00 65 1007.3
20260507144540 14 311 1.6 11.3 0.00 0.00 0.00 66 1007.4
20260507143039 14 331 3.2 12.9 0.00 0.00 0.00 62 1007.6
20260507141515 13 292 4.8 11.3 0.00 0.00 0.00 71 1007.6
20260507140044 12 306 4.8 12.9 0.00 0.00 0.00 73 1007.8
20260507134518 12 49 0.0 8.0 0.00 0.00 0.00 83 1007.7
20260507133026 11 293 6.4 12.9 0.00 0.00 0.00 85 1007.7
20260507131608 11 310 1.6 12.9 0.00 0.00 0.00 92 1007.7
20260507130007 10 309 3.2 8.0 0.00 0.00 0.00 95 1007.6
20260507124553 10 318 3.2 8.0 0.00 0.00 0.00 96 1007.7
20260507123022 9 289 3.2 8.0 0.00 0.00 0.00 96 1008.2
20260507121559 8 311 3.2 8.0 0.00 0.00 0.00 97 1008.0
20260507120059 8 312 1.6 8.0 0.00 0.00 0.00 96 1007.6
20260507114501 8 313 1.6 4.8 0.00 0.00 0.00 96 1007.7
20260507113016 8 313 1.6 3.2 0.00 0.00 0.00 96 1007.8
20260507111524 8 313 0.0 3.2 0.00 0.00 0.00 96 1007.7
20260507110022 8 313 0.0 4.8 0.00 0.00 0.00 96 1007.3
20260507104535 8 313 0.0 3.2 0.00 0.00 0.00 95 1007.3
20260507103055 8 313 0.0 3.2 0.00 0.00 0.00 95 1007.5
20260507101557 8 313 1.6 11.3 0.00 0.00 0.00 95 1007.7
20260507100034 8 330 3.2 9.7 0.00 0.00 0.00 95 1007.4
20260507094512 8 298 0.0 8.0 0.00 0.00 0.00 95 1007.1
20260507093051 8 315 0.0 8.0 0.00 0.00 0.00 95 1007.3
20260507091538 9 303 3.2 8.0 0.00 0.00 0.00 95 1007.0
20260507090057 9 312 3.2 9.7 0.00 0.00 0.00 95 1006.7
20260507084547 10 317 1.6 8.0 0.00 0.00 0.00 94 1006.9
20260507083052 10 313 3.2 9.7 0.00 0.00 0.00 93 1007.0
20260507081541 10 320 1.6 8.0 0.00 0.00 0.00 93 1006.7
20260507080018 11 313 3.2 9.7 0.00 0.00 0.00 92 1006.8
20260507074611 12 302 6.4 12.9 0.00 0.00 0.00 90 1006.7
20260507073037 12 313 4.8 11.3 0.00 0.00 0.00 89 1005.7
20260507071531 12 300 3.2 8.0 0.00 0.00 0.00 89 1005.7
20260507070041 12 300 4.8 11.3 0.00 0.00 0.00 88 1005.6
20260507064527 13 304 4.8 8.0 0.00 0.00 0.00 90 1005.8
20260507063043 13 299 3.2 9.7 0.00 0.00 0.00 91 1005.8
20260507061611 13 298 4.8 11.3 0.00 0.00 0.00 92 1005.6
20260507060051 13 309 6.4 12.9 0.00 0.00 0.00 95 1006.0
20260507054637 14 296 3.2 9.7 0.00 0.00 0.00 97 1005.9
20260507053053 14 309 1.6 9.7 0.00 0.00 0.00 97 1006.0
20260507051543 14 252 1.6 8.0 0.00 0.00 0.00 98 1006.1
20260507050043 14 252 3.2 9.7 0.00 0.00 0.00 98 1006.1
20260507044538 14 269 1.6 11.3 0.00 0.00 0.00 98 1006.1
20260507043046 14 235 4.8 12.9 0.00 0.00 0.00 98 1005.8
20260507041601 14 241 4.8 11.3 0.00 0.00 0.00 98 1006.1
20260507040027 14 273 6.4 11.3 0.00 0.00 0.00 98 1006.1
20260507034524 13 216 6.4 20.9 0.00 0.00 0.00 98 1006.3
20260507033105 13 236 6.4 19.3 0.00 0.00 0.00 97 1006.2
20260507031609 13 232 8.0 16.1 0.00 0.00 0.00 98 1005.9
20260507030058 13 241 8.0 16.1 0.00 0.00 0.00 98 1005.8
20260507024601 13 220 9.7 22.5 0.00 0.00 0.00 97 1005.8
20260507023002 13 240 12.9 25.7 0.00 0.00 0.00 97 1005.8
20260507021549 13 258 8.0 20.9 0.00 0.00 0.00 97 1005.7
20260507020035 13 247 4.8 20.9 0.00 0.00 0.00 97 1005.8
20260507014555 13 198 12.9 27.4 0.00 0.00 0.00 97 1006.0
20260507013057 13 252 9.7 22.5 0.00 0.00 0.00 97 1006.3
20260507011554 13 253 9.7 22.5 0.00 0.00 0.00 97 1006.3
20260507010113 13 238 11.3 24.1 0.00 0.00 0.00 97 1006.4
20260507004551 13 210 12.9 30.6 0.00 0.00 0.00 97 1006.3
20260507003056 13 242 12.9 29.0 0.00 0.00 0.00 97 1006.3
20260507001557 13 255 9.7 24.1 0.00 0.00 0.00 97 1006.4
20260507000039 13 271 12.9 24.1 0.00 0.00 0.00 97 1006.2
20260506234529 13 200 9.7 25.7 0.00 0.00 0.00 97 1006.0
20260506233016 13 215 16.1 27.4 0.00 0.00 0.00 96 1006.1
20260506231525 13 199 11.3 20.9 0.00 0.00 0.00 96 1006.4
20260506230031 13 195 8.0 20.9 0.00 0.00 0.00 96 1006.3
20260506224544 13 225 8.0 22.5 0.00 0.00 0.00 96 1006.2
20260506223054 13 207 12.9 25.7 0.00 0.00 0.00 96 1006.4
20260506221524 13 198 11.3 29.0 0.00 0.00 0.00 95 1006.7
20260506220115 13 236 14.5 27.4 0.00 0.00 0.00 94 1006.7
20260506214604 14 215 11.3 25.7 0.00 0.00 0.00 94 1006.8
20260506213113 14 225 9.7 27.4 0.00 0.00 0.00 94 1006.9
20260506211554 14 173 11.3 29.0 0.00 0.00 0.00 94 1006.9
20260506210115 15 234 9.7 22.5 0.00 0.00 0.00 93 1007.0
20260506204504 15 223 14.5 32.2 0.00 0.00 0.00 92 1007.2
20260506203101 15 240 12.9 27.4 0.00 0.00 0.00 90 1007.0